This demonstration page uses our WeatherBlox Daily Observations layout. Learn more.

41.55636, -103.73856

Hourly Observations for May 7, 2015

Temp ( °F °C ) Dew Point ( °F °C ) Humidity (%) Winds ( mph kmh ) Pressure ( in mb ) Visibility ( mi km ) Precip ( " mm )
12:35 am 00:35 Cloudy with Light Rain 48 8.9 46 7.8 93 93 NW 14 22 29.77 1008 6 9.65604 0.03 0.762
12:50 am 00:50 Cloudy with Light Rain 48 9 46 8 94 94 NW 17 28 29.77 1008 8 12.87472 0 0
12:53 am 00:53 Cloudy with Light Rain 48 8.9 46 7.8 93 93 NW 17 28 29.75 1008 8 12.87472 0.03 0.762
1:53 am 01:53 Cloudy 48 9 N/A N/A WNW 12 19 29.76 1008 10 16.0934 0 0.0254
2:53 am 02:53 Cloudy 48 9 N/A N/A NW 16 26 29.77 1008 10 16.0934 0 0
3:53 am 03:53 Cloudy 48 8.9 48 8.9 100 100 WNW 14 22 29.79 1009 10 16.0934 0 0
4:53 am 04:53 Cloudy 48 8.9 43 6.1 83 83 NW 13 20 29.8 1009 10 16.0934 0 0
5:19 am 05:19 Cloudy 48 8.9 43 6.1 83 83 NW 12 19 29.83 1010 10 16.0934 0 0
5:53 am 05:53 Cloudy 47 8.3 42 5.6 83 83 WNW 10 17 29.81 1009 10 16.0934 0 0.0254
6:53 am 06:53 Cloudy 48 8.9 42 5.6 80 80 WNW 10 17 29.83 1010 10 16.0934 0 0
7:32 am 07:32 Cloudy 48 9 43 6 82 82 WNW 10 17 29.91 1013 10 16.0934 0 0
7:53 am 07:53 Cloudy 49 9.4 42 5.6 77 77 WNW 13 20 29.89 1012 10 16.0934 0 0
8:53 am 08:53 Cloudy with Light Rain 49 9.4 41 5 74 74 NW 16 26 29.91 1013 10 16.0934 0 0.0254
9:53 am 09:53 Cloudy 52 11.1 42 5.6 69 69 NW 14 22 29.91 1013 10 16.0934 0 0.0254
10:53 am 10:53 Cloudy 53 11.7 42 5.6 66 66 NW 15 24 29.93 1013 10 16.0934 0 0
11:13 am 11:13 Cloudy 53 11.7 41 5 64 64 NNW 15 24 29.88 1012 10 16.0934 0 0
11:53 am 11:53 Cloudy 54 12.2 40 4.4 59 59 NNW 13 20 29.93 1014 10 16.0934 0 0
12:53 pm 12:53 Cloudy 56 13.3 40 4.4 55 55 NNW 16 26 29.92 1013 10 16.0934 0 0
1:53 pm 13:53 Mostly Cloudy 59 15 41 5 51 51 NNW 15 24 29.91 1013 10 16.0934 0 0
2:53 pm 14:53 Mostly Cloudy 59 15 40 4.4 49 49 N 14 22 29.9 1013 10 16.0934 0 0
3:53 pm 15:53 Mostly Cloudy 57 13.9 41 5 55 55 N 14 22 29.91 1013 10 16.0934 0 0
4:53 pm 16:53 Mostly Cloudy 57 13.9 41 5 55 55 N 8 13 29.94 1014 10 16.0934 0 0
5:53 pm 17:53 Partly Cloudy 57 13.9 41 5 55 55 N 12 19 29.94 1014 10 16.0934 0 0
6:53 pm 18:53 Sunny 54 12.2 42 5.6 64 64 NNE 14 22 29.95 1014 10 16.0934 0 0
7:53 pm 19:53 Sunny 50 10 42 5.6 74 74 NNE 10 17 29.98 1015 10 16.0934 0 0
8:53 pm 20:53 Mostly Cloudy 48 8.9 42 5.6 80 80 undefined N/A 30.01 1016 10 16.0934 0 0
9:53 pm 21:53 Cloudy 47 8.3 42 5.6 83 83 E 7 11 30.03 1017 10 16.0934 0 0
10:53 pm 22:53 Clear 46 7.8 41 5 83 83 SW 3 6 30.03 1017 10 16.0934 0 0
11:53 pm 23:53 Partly Cloudy 44 6.7 39 3.9 83 83 Calm 30.04 1017 10 16.0934 0 0

Powered by AerisWeather